Weather Roundup
Issued by NWS

Home | Current Version | Previous Version | Graphics & Text | Print | Product List | Glossary Off
Versions: 1 2 3 4 5 6 7 8 9 10 11 12 13 14 15 16 17 18 19 20 21 22 23 24 25 26 27 28 29 30 31 32 33 34 35 36 37 38 39 40 41 42 43 44 45 46 47 48 49 50

517
NZUS93 KARX 251010
HRRWXR

CURRENT HOURLY OBSERVATIONS ACROSS
MUCH OF THE UPPER MISSISSIPPI VALLEY
NATIONAL WEATHER SERVICE LA CROSSE WI
500 AM CDT SAT MAR 25 2017


...SOUTHEAST MINNESOTA...


CITY           SKY/WX    TMP DP  RH WIND       PRES   REMARKS
ROCHESTER      CLOUDY    36  35  96 NE21      30.08R WCI  25
ROCHESTER/MAYO CLOUDY    37  36  95 NE8G21    30.10S WCI  31
WINONA         CLOUDY    37  34  87 E10       30.14R WCI  30
AUSTIN         CLOUDY    37  34  87 NE14      30.05S FOG     WCI  29
ALBERT LEA     CLOUDY    37  36  93 NE17      30.06R FOG     WCI  28
DODGE CENTER   CLOUDY    36  34  93 NE16      30.08S WCI  26
PRESTON        CLOUDY    36  34  92 NE14G22   30.07S WCI  27
OWATONNA       CLOUDY    37  34  87 NE13G18   30.09S WCI  29
FARIBAULT      CLOUDY    37  34  87 N10G18    30.11F WCI  30
$$

...ELSEWHERE IN MINNESOTA...


CITY           SKY/WX    TMP DP  RH WIND       PRES   REMARKS
MINNEAPOLIS    CLOUDY    37  30  75 NE8       30.16S WCI  31
INTNL FALLS    CLOUDY    33  28  81 E6        30.25S WCI  28
DULUTH         CLOUDY    32  29  88 E10       30.22F WCI  24
RED WING       CLOUDY    39  30  70 E8        30.14R WCI  34
REDWOOD FALLS  CLOUDY    37  32  82 NE6       30.13S WCI  32
MANKATO        CLOUDY    37  34  89 NE17      30.10F WCI  27
WORTHINGTON    CLOUDY    34  34 100 NE17      30.08R FOG     WCI  23
FAIRMONT       CLOUDY    37  35  92 NE16      30.08R WCI  28
$$

...SOUTHWEST WISCONSIN...


CITY           SKY/WX    TMP DP  RH WIND       PRES   REMARKS
LA CROSSE      CLOUDY    39  35  86 NE16G23   30.12S WCI  30
PRAIRIE DU CHI CLOUDY    37  36  96 NE10      30.05R WCI  29
BOSCOBEL       CLOUDY    38  35  89 E13G21    30.07S WCI  30
LONE ROCK      CLOUDY    37  34  89 E14       30.09R WCI  28
PLATTEVILLE    CLOUDY    37  37 100 NE16      30.02S WCI  28
FORT MC COY    CLOUDY    35  34  94 NE9G18    30.14R WCI  28
CAMP DOUGLAS   CLOUDY    35  33  93 NE9       30.13S WCI  28
MAUSTON-NEW LI CLOUDY    36  33  91 NE7       30.12R FOG     WCI  30
VIROQUA        CLOUDY    35  35 100 NE20      30.07S WCI  24
WIS DELLS      CLOUDY    34  33  96 NE14G20   30.10R FOG     WCI  24
$$

...ELSEWHERE IN WISCONSIN...


CITY           SKY/WX    TMP DP  RH WIND       PRES   REMARKS
MILWAUKEE      LGT RAIN  38  35  89 N14G22    30.09R WCI  30
MADISON        CLOUDY    36  34  92 NE14G21   30.09R WCI  27
GREEN BAY      CLOUDY    35  34  96 N18       30.18R WCI  24
EAU CLAIRE     CLOUDY    37  32  82 NE13      30.16R WCI  29
BLACK RVR FLS  CLOUDY    37  35  95 NE10      30.14F WCI  29
MEDFORD        CLOUDY    32  29  90 E10       30.17R WCI  24
WAUSAU         CLOUDY    33  30  88 E12       30.17F WCI  24
WIS RAPIDS     CLOUDY    34  32  92 E14       30.17S WCI  25
MARSHFIELD     CLOUDY    33  30  88 E14       30.15S WCI  23
RICE LAKE      CLOUDY    35  31  85 CALM      30.20S
$$

...NORTHEAST IOWA...


CITY           SKY/WX    TMP DP  RH WIND       PRES   REMARKS
WATERLOO       CLOUDY    38  35  89 E22       29.99R WCI  27
DUBUQUE        NOT AVBL
DECORAH        CLOUDY    37  36  93 NE9G20    30.03R WCI  31
MASON CITY     CLOUDY    38  35  89 NE17G25   30.04R WCI  28
CHARLES CITY   CLOUDY    37  37 100 NE17G28   30.03R WCI  28
OELWEIN        CLOUDY    37  37 100 E20       30.00R WCI  27
$$

...ELSEWHERE IN IOWA...


CITY           SKY/WX    TMP DP  RH WIND       PRES   REMARKS
DES MOINES     FOG       43  41  93 NE18G25   29.89F VSB 1
IOWA CITY      CLOUDY    45  41  86 E15       29.95S
FORT DODGE     CLOUDY    37  34  87 NE16      30.00R WCI  28
MARSHALLTOWN   CLOUDY    39  38  96 E16G25    29.94F WCI  30
CEDAR RAPIDS   LGT RAIN  41  41 100 NE18      29.94S FOG
$$

...NORTHERN ILLINOIS...


CITY           SKY/WX    TMP DP  RH WIND       PRES   REMARKS
CHICAGO-OHARE  DRIZZLE   41  36  82 NE14      30.03F
CHICAGO-MIDWAY LGT RAIN  42  40  92 N10       30.03S
MOLINE         LGT RAIN  43  40  89 NE15      29.95S FOG
ROCKFORD       CLOUDY    40  37  89 NE12      30.06S WCI  33
PEORIA         LGT RAIN  47  46  97 E17       29.91F FOG
$$

NOTE: "FAIR" INDICATES FEW OR NO CLOUDS BELOW 12,000 FEET WITH NO
SIGNIFICANT WEATHER AND/OR OBSTRUCTIONS TO VISIBILITY. WIND
SPEEDS ARE IN MILES-PER-HOUR.




USA.gov is the U.S. government's official web portal to all federal, state and local government web resources and services.